Total_Precipitation_Accumulation
0.00 0.00 0.00 0.01 0.02 0.05 0.13 0.18 0.21 0.29 0.34 0.33 0.33 0.40 0.44 0.49 0.62 1.22 0.74 0.31 0.20 0.10 0.06 0.05 0.06 0.08 0.10 0.11 0.14 0.16 0.17 0.16 0.15 0.14 0.14 0.14 0.15 0.15 0.15 0.16 0.19 0.23 0.25 0.24 0.23 0.23 0.23 0.20 0.16
0.00 0.00 0.01 0.02 0.03 0.10 0.17 0.19 0.26 0.32 0.30 0.29 0.33 0.37 0.35 0.33 0.29 0.28 0.37 0.28 0.20 0.12 0.09 0.05 0.05 0.06 0.08 0.09 0.11 0.15 0.17 0.16 0.15 0.14 0.14 0.14 0.15 0.16 0.18 0.20 0.25 0.32 0.35 0.36 0.31 0.26 0.24 0.21 0.16
0.00 0.01 0.01 0.02 0.05 0.14 0.20 0.22 0.28 0.29 0.27 0.30 0.36 0.44 0.47 0.38 0.32 0.29 0.33 0.23 0.22 0.17 0.11 0.08 0.07 0.07 0.06 0.07 0.10 0.14 0.16 0.16 0.17 0.19 0.18 0.16 0.16 0.18 0.22 0.26 0.30 0.35 0.37 0.36 0.32 0.29 0.27 0.22 0.17
0.00 0.01 0.01 0.02 0.05 0.13 0.23 0.27 0.31 0.33 0.28 0.28 0.31 0.48 0.53 0.42 0.41 0.38 0.36 0.31 0.24 0.21 0.15 0.11 0.10 0.10 0.09 0.08 0.09 0.13 0.17 0.20 0.20 0.22 0.23 0.22 0.21 0.22 0.28 0.35 0.39 0.37 0.37 0.38 0.37 0.36 0.30 0.23 0.17
0.01 0.01 0.01 0.02 0.05 0.13 0.27 0.31 0.34 0.32 0.28 0.27 0.34 0.56 0.70 0.63 0.58 0.55 0.47 0.40 0.32 0.26 0.25 0.18 0.16 0.17 0.16 0.13 0.13 0.16 0.21 0.26 0.32 0.35 0.33 0.28 0.28 0.29 0.35 0.42 0.45 0.44 0.47 0.46 0.43 0.36 0.29 0.21 0.19
0.01 0.01 0.01 0.02 0.07 0.15 0.22 0.29 0.29 0.32 0.34 0.31 0.43 0.81 1.11 1.11 1.04 0.91 0.80 0.54 0.43 0.34 0.37 0.31 0.25 0.23 0.22 0.21 0.20 0.25 0.31 0.35 0.40 0.42 0.36 0.33 0.32 0.34 0.39 0.42 0.43 0.46 0.47 0.41 0.33 0.27 0.22 0.22 0.22
0.00 0.01 0.02 0.03 0.08 0.15 0.20 0.27 0.29 0.35 0.39 0.42 0.58 0.82 1.10 1.26 1.33 1.25 1.09 0.83 0.76 0.66 0.66 0.55 0.40 0.35 0.34 0.37 0.38 0.35 0.34 0.36 0.40 0.44 0.37 0.33 0.33 0.33 0.34 0.36 0.38 0.38 0.33 0.30 0.28 0.24 0.21 0.20 0.19
0.00 0.00 0.01 0.04 0.11 0.16 0.27 0.38 0.35 0.39 0.48 0.55 0.76 0.97 1.28 1.29 1.15 1.30 1.26 1.11 1.13 1.16 1.11 0.72 0.52 0.53 0.60 0.61 0.56 0.49 0.43 0.43 0.42 0.41 0.40 0.35 0.33 0.33 0.35 0.33 0.35 0.36 0.34 0.32 0.29 0.26 0.26 0.25 0.23
0.00 0.00 0.01 0.05 0.15 0.19 0.23 0.36 0.36 0.30 0.37 0.55 0.78 0.92 1.06 1.05 1.04 1.31 1.39 1.47 1.58 1.40 1.18 0.99 0.79 0.74 0.74 0.71 0.61 0.61 0.57 0.53 0.52 0.50 0.48 0.45 0.45 0.50 0.51 0.43 0.47 0.45 0.44 0.39 0.38 0.37 0.35 0.32 0.28
0.01 0.01 0.02 0.06 0.11 0.18 0.25 0.33 0.30 0.33 0.37 0.51 0.65 0.87 1.05 1.01 1.20 1.35 1.47 1.74 1.63 1.58 1.40 1.27 1.15 0.99 0.89 0.75 0.79 0.78 0.72 0.72 0.67 0.76 0.71 0.73 0.89 0.95 0.85 0.93 0.81 0.69 0.61 0.56 0.58 0.57 0.47 0.40 0.37
0.01 0.02 0.05 0.08 0.09 0.15 0.23 0.33 0.33 0.42 0.56 0.84 0.96 0.96 0.96 0.99 1.21 1.45 1.71 2.03 2.00 1.79 1.51 1.47 1.44 1.40 1.33 1.29 1.16 1.03 1.03 1.08 1.01 1.11 1.03 1.11 1.22 1.17 1.18 1.29 1.12 0.98 0.86 0.82 0.90 0.76 0.60 0.59 0.66
0.02 0.04 0.10 0.10 0.14 0.20 0.28 0.41 0.58 0.64 0.74 0.93 1.02 1.00 1.05 1.09 1.25 1.48 1.75 2.03 2.20 2.10 1.92 1.94 1.71 1.63 1.68 1.83 1.73 1.36 1.28 1.27 1.19 1.37 1.34 1.47 1.62 1.63 1.70 1.72 1.52 1.45 1.40 1.38 1.28 1.18 1.01 0.91 0.87
0.02 0.05 0.10 0.09 0.17 0.26 0.37 0.44 0.56 0.53 0.44 0.64 0.82 0.98 1.12 1.05 1.21 1.42 1.75 2.25 2.53 2.50 2.36 2.35 2.17 2.05 2.10 2.30 2.28 1.75 1.61 1.74 1.92 2.01 1.87 1.83 1.82 1.88 2.03 1.98 1.90 1.84 1.92 1.84 1.69 1.49 1.50 1.46 1.28
0.02 0.04 0.06 0.10 0.16 0.20 0.28 0.30 0.42 0.57 0.53 0.60 0.71 0.86 1.07 1.29 1.55 1.78 2.03 2.46 2.76 2.86 2.74 2.67 2.56 2.48 2.43 2.51 2.50 2.43 2.14 2.18 2.36 2.46 2.41 2.21 2.18 2.32 2.48 2.48 2.34 2.14 2.14 2.08 1.98 1.89 1.93 1.86 1.78
0.03 0.03 0.06 0.11 0.17 0.19 0.20 0.35 0.48 0.58 0.62 0.67 0.72 0.83 1.06 1.38 1.63 1.88 2.31 2.58 2.67 2.70 2.67 2.76 2.69 2.75 2.79 2.82 2.70 2.74 2.73 2.75 2.85 2.88 2.72 2.50 2.46 2.77 2.83 2.86 2.64 2.45 2.41 2.49 2.41 2.32 2.30 2.07 1.97
0.06 0.06 0.09 0.14 0.17 0.22 0.19 0.39 0.54 0.43 0.47 0.57 0.72 0.88 1.00 1.19 1.54 1.88 2.25 2.47 2.61 2.94 3.00 3.01 3.00 3.02 3.05 3.09 3.01 2.99 2.97 3.23 3.24 3.25 3.19 2.92 2.82 2.95 3.04 3.05 2.92 2.76 2.66 2.85 2.98 2.91 2.82 2.64 2.57
0.07 0.09 0.12 0.16 0.18 0.20 0.22 0.39 0.49 0.42 0.41 0.57 0.91 1.14 1.12 1.22 1.61 2.02 2.35 2.61 2.73 2.89 3.15 3.12 3.10 3.27 3.30 3.33 3.19 3.32 3.48 3.52 3.40 3.38 3.43 3.35 3.25 3.32 3.37 3.30 3.29 3.25 3.26 3.25 3.09 3.19 3.08 3.08 2.98
0.09 0.10 0.13 0.17 0.20 0.18 0.22 0.39 0.52 0.51 0.57 0.75 0.96 1.12 1.21 1.26 1.43 1.78 2.22 2.67 2.84 2.87 2.88 3.02 3.04 3.17 3.28 3.52 3.54 3.59 3.69 3.80 3.92 4.08 4.14 3.91 3.85 3.75 3.90 3.85 3.76 3.77 3.73 3.53 3.48 3.47 3.31 3.14 3.02
0.08 0.11 0.13 0.16 0.18 0.21 0.26 0.36 0.53 0.65 0.75 0.79 0.83 0.89 0.93 1.21 1.46 1.79 2.11 2.43 2.93 2.96 2.87 2.98 3.19 3.34 3.44 3.73 3.83 4.05 4.36 4.51 4.63 4.69 4.60 4.55 4.44 4.49 4.49 4.30 4.06 3.93 3.94 3.87 3.85 3.68 3.48 3.22 3.06
0.09 0.15 0.19 0.19 0.17 0.23 0.37 0.48 0.62 0.74 0.76 0.73 0.83 1.02 1.14 1.46 1.79 1.96 2.14 2.51 2.92 3.11 3.18 3.24 3.48 3.78 4.02 4.26 4.68 4.97 5.21 5.40 5.57 5.60 5.18 5.00 4.89 4.76 4.66 4.66 4.58 4.36 4.18 4.01 3.84 3.77 3.60 3.26 3.12
0.08 0.12 0.18 0.20 0.17 0.23 0.40 0.63 0.78 0.86 0.91 1.03 1.25 1.45 1.56 1.66 1.97 2.05 2.15 2.52 2.82 3.03 3.20 3.35 3.57 4.02 4.59 4.97 5.40 5.79 5.94 5.96 5.79 5.52 5.39 5.24 5.12 4.99 4.83 4.66 4.43 4.28 4.17 4.03 3.84 3.65 3.52 3.28 3.13
0.07 0.10 0.16 0.15 0.15 0.24 0.37 0.68 1.01 1.11 1.17 1.40 1.61 1.57 1.64 1.79 2.00 2.12 2.28 2.54 2.83 3.05 3.20 3.51 4.00 4.64 5.21 5.69 6.21 6.67 6.77 6.59 6.28 5.85 5.43 5.16 4.89 4.58 4.31 4.16 4.08 3.92 3.64 3.41 3.27 3.17 3.02 2.89 2.75
0.07 0.06 0.13 0.13 0.09 0.19 0.31 0.55 1.18 1.37 1.42 1.66 1.92 1.71 1.63 1.63 1.69 1.94 2.11 2.30 2.66 2.86 3.06 3.41 4.00 4.69 5.39 6.24 6.93 7.32 7.20 6.88 6.47 5.80 5.22 4.74 4.32 3.97 3.70 3.55 3.36 3.14 2.80 2.46 2.36 2.43 2.50 2.49 2.41
0.07 0.06 0.09 0.12 0.10 0.21 0.24 0.47 1.11 1.54 1.71 1.86 1.82 1.64 1.55 1.47 1.44 1.52 1.60 1.88 2.23 2.53 2.79 3.17 3.78 4.53 5.20 5.84 6.38 6.60 6.50 6.29 5.78 5.10 4.50 4.13 3.78 3.41 3.03 2.69 2.38 2.14 1.96 1.76 1.72 1.76 1.88 2.06 2.16
0.07 0.08 0.23 0.34 0.36 0.34 0.28 0.51 1.10 1.46 1.63 1.59 1.53 1.53 1.39 1.38 1.39 1.36 1.39 1.62 1.92 2.14 2.52 2.91 3.35 3.96 4.39 4.74 5.17 5.35 5.36 5.15 4.84 4.38 3.94 3.53 3.05 2.69 2.38 2.07 1.90 1.72 1.61 1.53 1.48 1.46 1.46 1.57 1.72
0.07 0.08 0.27 0.49 0.47 0.47 0.49 0.84 1.36 1.44 1.45 1.38 1.33 1.33 1.32 1.31 1.32 1.37 1.46 1.59 1.81 1.94 2.13 2.33 2.63 2.99 3.15 3.20 3.45 3.68 3.71 3.68 3.55 3.27 2.97 2.69 2.33 1.96 1.68 1.45 1.31 1.22 1.22 1.21 1.25 1.28 1.28 1.30 1.38
0.07 0.07 0.12 0.26 0.29 0.55 0.85 1.23 1.70 1.62 1.57 1.51 1.48 1.31 1.24 1.20 1.23 1.35 1.39 1.37 1.41 1.49 1.56 1.64 1.77 1.93 2.01 2.09 2.15 2.30 2.34 2.33 2.27 2.12 1.89 1.68 1.50 1.28 1.10 0.99 0.97 0.91 0.89 0.91 0.91 0.96 1.04 1.12 1.16
0.07 0.10 0.15 0.26 0.50 0.76 1.04 1.51 2.13 2.16 1.84 1.56 1.36 1.14 1.04 1.06 1.15 1.24 1.28 1.23 1.20 1.20 1.25 1.31 1.34 1.39 1.44 1.48 1.46 1.49 1.52 1.49 1.43 1.34 1.27 1.15 1.03 0.92 0.84 0.76 0.70 0.64 0.61 0.62 0.66 0.70 0.75 0.82 0.91
0.12 0.15 0.20 0.26 0.36 0.73 1.19 1.86 2.14 2.34 2.23 1.79 1.44 1.25 1.14 1.06 1.06 1.12 1.10 1.06 1.03 1.01 1.01 1.07 1.08 1.06 1.07 1.09 1.09 1.09 1.05 1.02 1.00 1.00 0.98 0.87 0.76 0.66 0.59 0.53 0.49 0.48 0.48 0.51 0.58 0.63 0.66 0.68 0.73
0.14 0.17 0.24 0.47 0.52 0.58 1.10 2.03 2.08 2.37 2.45 2.14 1.83 1.66 1.53 1.25 1.15 1.14 1.04 0.97 0.92 0.91 0.88 0.90 0.87 0.87 0.91 0.88 0.84 0.85 0.79 0.74 0.74 0.74 0.68 0.62 0.57 0.52 0.46 0.41 0.40 0.41 0.42 0.43 0.45 0.48 0.52 0.59 0.64